Regional Weather Roundup
Issued by NWS State College, PA

Home | Current Version | Previous Version | Graphics & Text | Print | Product List | Glossary Off
Versions: 1 2 3 4 5 6 7 8 9 10 11 12 13 14 15 16 17 18 19 20 21 22 23 24 25 26 27 28 29 30 31 32 33 34 35 36 37 38 39 40 41 42 43 44 45 46 47 48 49 50

000
ASUS41 KCTP 221803
RWRCTP

REGIONAL WEATHER ROUNDUP
NATIONAL WEATHER SERVICE STATE COLLEGE PA
200 PM EDT TUE APR 22 2014

Note: "fair" indicates few or no clouds below 12,000 feet with no
significant weather and/or obstructions to visibility.

* = STATION THAT DOES NOT REPORT PRECIPITATION /E.G. RAIN...SNOW...ETC/
    THUNDER OR FOG.

PAZ002>004-007>009-013>016-020>023-029>032-221900-
WESTERN PENNSYLVANIA

CITY           SKY/WX    TMP DP  RH WIND       PRES   REMARKS
ERIE           CLOUDY    43  38  82 W15G22    29.71R
MEADVILLE      CLOUDY    48  43  82 NW9G20    29.68S
FRANKLIN*      CLOUDY    54  48  82 NW13G18   29.67S
NEW CASTLE     CLOUDY    54  52  93 NW8       29.69R
BEAVER COUNTY  CLOUDY    66  54  63 W15G21    29.64F THUNDER
BUTLER*        PTSUNNY   64  54  68 SW12      29.65F
PITTSBURGH INT PTSUNNY   67  52  58 W13G22    29.64F
PITTSBURGH     PTSUNNY   67  52  58 W10G20    29.65F
INDIANA*       CLOUDY    59  59 100 W9        29.65F
LATROBE        PTSUNNY   63  61  94 SW14      29.67F FOG
WASHINGTON CO* MOSUNNY   64  54  68 W12G20    29.69F
$$

PAZ004>006-010>012-017>019-024>028-033>037-041-042-045-046-049>053-221900-
CENTRAL PENNSYLVANIA

CITY           SKY/WX    TMP DP  RH WIND       PRES   REMARKS
BRADFORD       PTSUNNY   59  48  67 NW16G23   29.60F
DUBOIS         LGT RAIN  59  55  87 W9        29.62F FOG
CLEARFIELD     CLOUDY    55  54  96 SW10      29.63F FOG
JOHNSTOWN      CLOUDY    55  53  93 W12G22    29.66F FOG
ALTOONA        LGT RAIN  59  56  89 W10       29.66F FOG
STATE COLLEGE  CLOUDY    63  52  67 W12       29.62F
WILLIAMSPORT   CLOUDY    59  43  55 CALM      29.60F
SELINSGROVE    LGT RAIN  58  50  75 S6        29.62F
FT INDIANTOWN  LGT RAIN  56  56  99 SW6       29.64R
CAPITAL CITY   LGT RAIN  59  51  75 CALM      29.63F
HARRISBURG     LGT RAIN  60  52  74 CALM      29.63F
YORK           LGT RAIN  60  55  83 SW7       29.65F
$$

PAZ038>040-043-044-047-048-054-055-060>062-067>071-221900-
EASTERN PENNSYLVANIA

CITY           SKY/WX    TMP DP  RH WIND       PRES   REMARKS
SCRANTON       LGT RAIN  59  46  62 SW9G20    29.60F
MOUNT POCONO   LGT RAIN  63  41  44 W13G24    29.61F
ALLENTOWN      LGT RAIN  67  46  47 W9        29.61F
QUAKERTOWN*    PTCLDY    68  48  49 W7        29.62S
READING        LGT RAIN  65  49  56 W7        29.62S
LANCASTER      LGT RAIN  62  50  64 W9        29.64S
COATESVILLE    MOCLDY    70  48  46 W10       29.64S
POTTSTOWN      PTSUNNY   71  46  40 SW12      29.62F
BLUE BELL      MOSUNNY   73  48  40 SW7       29.60F
DOYLESTOWN     MOSUNNY   71  46  40 SW9       29.59F
WILLOW GROVE   NOT AVBL
NORTH PHILA    MOSUNNY   75  45  34 W13       29.61F
PHILADELPHIA   PTSUNNY   73  45  36 W12       29.62F
$$



USA.gov is the U.S. government's official web portal to all federal, state and local government web resources and services.